Theta_e
316 316 316 318 319 316 311 310 310 315 318 320 322 323 321 320 319 320 321 321 323 323 321 325 325 325 327 329 331 331 335 339 339 336 332 328 329 327 326 329 328 330 331 335 337
314 315 315 315 318 319 316 312 310 311 315 319 320 323 321 320 321 322 322 321 321 320 324 322 324 324 325 328 332 334 337 337 334 329 329 328 328 327 328 327 329 331 332 336 336
313 313 314 315 314 318 318 315 312 310 312 317 319 322 322 320 322 323 322 321 319 317 322 324 324 325 326 324 330 332 335 333 332 328 327 328 327 327 327 328 327 329 332 335 335
311 311 311 312 313 314 319 318 314 311 311 315 318 320 322 321 322 321 320 321 321 318 323 323 323 324 324 324 326 328 329 331 332 326 326 329 326 326 326 327 325 327 331 333 334
310 310 310 311 311 311 314 319 317 313 311 312 316 319 321 323 324 319 319 318 320 321 323 323 324 323 324 322 322 325 327 326 330 327 326 326 327 327 327 325 324 325 329 332 333
308 309 309 309 310 311 312 314 319 316 311 310 315 318 320 325 320 321 321 319 322 323 323 322 323 323 323 322 322 323 326 325 326 329 329 329 329 328 328 325 326 323 323 327 330
306 307 309 308 309 311 312 313 318 317 314 311 313 318 320 321 320 321 322 322 323 323 323 322 322 326 323 325 325 326 327 325 323 327 330 331 332 331 328 328 328 327 321 322 324
306 306 307 308 308 309 311 312 314 318 317 312 311 318 318 318 320 321 323 323 323 323 323 323 327 327 326 325 327 326 326 328 321 324 326 328 330 327 326 328 328 327 326 326 326
305 305 306 306 307 308 309 312 315 317 317 314 315 316 317 316 319 321 322 322 323 323 324 325 325 326 327 327 326 327 322 321 319 318 322 329 330 323 320 321 326 328 327 326 325
304 304 305 305 306 307 308 313 314 315 318 316 312 317 314 317 319 321 321 322 322 323 324 325 326 325 324 324 322 321 324 320 319 319 324 323 325 323 322 320 324 325 326 323 324
304 303 304 303 305 305 307 312 313 315 317 316 312 313 313 315 318 320 321 321 322 324 325 325 326 326 325 324 321 318 319 321 320 318 323 322 323 323 321 318 317 320 322 322 321
303 304 303 303 306 304 306 311 314 315 317 314 311 313 313 316 319 320 321 323 323 323 322 325 327 323 322 323 323 322 322 322 320 319 323 323 324 322 321 318 318 318 319 318 319
302 303 303 303 304 305 307 310 313 314 314 314 312 313 313 316 319 320 320 321 322 323 323 323 320 322 322 323 324 323 323 322 322 321 322 325 323 322 321 320 320 319 319 318 318
303 302 303 304 305 305 307 307 311 312 315 313 313 311 313 316 318 317 320 320 322 322 322 323 320 321 322 323 322 325 321 321 322 323 324 321 325 321 319 319 319 319 318 318 318
302 302 304 303 304 305 305 307 309 310 317 314 313 310 313 317 316 318 319 320 322 322 321 322 321 321 322 322 321 323 319 320 321 323 322 321 322 320 318 318 318 318 318 318 317
301 301 303 304 304 304 305 307 309 312 316 313 312 314 315 316 316 319 320 319 319 320 320 320 317 318 319 320 320 319 320 320 320 321 323 319 320 318 317 316 315 317 316 316 317
301 301 302 303 304 303 305 308 310 313 311 312 314 314 314 316 316 319 321 321 321 321 321 319 319 319 318 321 321 321 321 323 322 323 321 317 320 317 315 313 313 313 314 315 316
301 301 301 302 303 303 305 309 310 310 312 311 312 315 316 315 315 316 318 321 319 318 320 322 323 319 318 320 322 322 320 318 317 319 316 314 315 313 315 315 314 315 315 316 314
301 301 302 302 303 303 305 309 309 312 312 313 313 316 316 315 315 316 319 318 319 318 319 320 320 317 317 317 319 322 322 316 318 310 315 315 314 313 314 313 312 314 313 313 311
300 301 301 301 303 303 305 308 309 310 312 313 316 315 317 317 317 316 318 317 318 317 315 317 319 318 317 317 316 318 317 320 320 318 316 314 314 313 314 313 312 312 311 311 310
300 301 300 301 302 302 306 306 306 308 312 313 314 314 315 317 317 318 318 316 316 317 317 316 316 318 316 318 320 319 320 318 317 317 316 314 311 309 310 309 310 310 311 311 311
300 301 300 301 303 302 305 305 305 307 311 313 312 314 314 315 316 316 316 316 314 316 318 317 318 316 318 314 314 317 318 317 320 318 316 316 314 311 311 311 310 310 311 310 311
299 300 300 301 302 304 302 304 305 305 308 312 313 313 314 314 315 315 315 314 315 315 317 315 316 317 315 313 312 317 318 317 317 315 317 314 315 311 310 308 307 309 309 308 308
300 300 301 301 300 301 303 304 305 304 308 309 311 313 313 314 313 314 314 313 315 315 313 313 313 314 314 314 313 316 316 317 318 320 317 315 312 311 309 307 307 308 307 306 307
299 300 301 300 301 302 304 303 304 307 305 310 312 311 313 315 313 314 314 313 315 314 313 311 316 311 312 308 313 313 315 317 317 317 317 315 314 311 310 308 306 306 306 308 307
299 302 300 303 302 302 302 306 304 306 308 308 311 312 312 313 314 314 313 313 315 314 314 311 315 311 310 311 307 310 311 314 315 315 314 313 312 311 310 309 307 305 306 306 306
298 300 301 304 302 303 302 303 306 306 305 305 309 310 313 312 312 311 310 309 312 314 314 310 313 314 316 312 310 310 308 309 311 313 313 314 313 311 310 310 307 307 306 305 304
Wind_Speed
18 17 17 22 26 23 22 22 21 19 16 12 10 9 8 8 8 7 9 4 6 9 11 10 7 8 8 4 1 3 3 5 5 1 4 6 5 2 3 4 0 3 8 14 26
18 18 18 17 23 26 24 21 20 20 18 13 11 8 8 6 8 14 10 13 13 5 2 7 6 3 4 3 2 3 3 7 5 9 8 8 6 8 3 5 4 6 6 21 21
20 20 18 17 18 23 27 24 21 20 19 16 11 9 8 4 6 9 15 24 16 10 6 4 8 7 8 6 5 4 6 10 8 8 8 4 2 1 4 5 7 11 11 14 19
22 21 22 22 20 19 27 26 24 21 19 17 13 10 8 6 6 2 3 13 17 11 8 6 5 3 4 7 8 9 9 7 3 5 6 5 7 2 5 2 7 5 17 16 12
23 23 24 22 22 20 19 28 27 24 19 18 15 12 9 5 7 1 6 5 11 11 13 8 7 7 7 4 9 9 7 11 1 3 5 6 5 6 7 8 5 8 8 11 10
24 25 26 23 23 22 20 20 30 26 21 18 18 15 8 10 9 7 1 5 7 10 11 11 3 7 7 9 8 4 7 14 7 4 3 3 7 6 5 10 9 9 5 7 11
26 24 25 27 25 23 22 22 25 27 23 18 19 16 13 14 4 17 6 6 8 11 8 11 10 3 0 6 9 4 8 9 10 8 5 3 7 11 8 9 7 6 9 9 10
27 25 25 25 25 24 21 20 20 27 24 18 19 16 7 19 15 8 7 8 9 8 10 8 2 5 2 3 2 1 5 4 5 7 7 6 11 11 9 13 13 11 9 8 11
28 27 26 25 24 22 20 20 20 27 24 19 12 12 10 14 18 12 12 10 10 7 5 2 4 4 5 4 4 6 4 10 9 11 8 9 7 9 12 12 9 7 6 8 9
30 29 27 27 24 22 20 16 13 16 23 20 12 8 10 16 19 20 13 15 10 12 6 5 4 6 6 8 7 6 8 8 8 6 9 10 11 11 11 9 7 5 6 8 8
32 32 29 27 27 24 21 7 5 6 12 7 14 11 2 22 25 23 21 18 10 11 8 9 6 14 13 13 11 9 8 3 8 8 8 9 10 14 15 10 10 9 9 9 9
34 31 31 29 27 27 24 9 13 4 9 18 12 22 4 22 11 19 27 13 10 12 13 6 16 12 12 13 13 11 10 7 9 4 2 7 13 13 15 14 9 10 9 9 8
35 33 31 32 30 27 27 29 8 7 2 5 13 18 20 13 13 19 24 14 15 15 18 17 4 15 12 11 14 13 11 8 6 5 5 5 19 19 14 21 19 13 12 8 9
34 34 34 32 25 27 28 29 22 8 8 6 10 4 23 9 10 22 29 17 8 20 16 13 16 17 15 18 12 14 6 5 2 3 4 4 7 9 8 9 18 18 10 9 9
33 31 32 35 19 24 30 23 19 7 17 18 11 8 7 15 10 15 29 18 14 13 11 8 14 17 17 17 14 7 8 9 6 5 5 7 8 4 7 10 11 6 10 10 10
30 33 35 32 27 29 27 25 15 12 14 8 14 15 15 23 13 15 18 11 5 11 14 12 2 12 14 11 10 8 7 7 4 2 8 7 9 5 9 11 6 4 8 8 5
31 34 35 32 26 28 30 13 11 16 12 8 9 21 27 18 20 13 20 20 9 9 10 5 1 2 4 9 7 11 10 2 2 4 7 11 11 15 11 10 6 6 4 2 5
32 33 37 34 34 27 22 11 16 28 8 6 11 27 29 27 24 19 22 18 14 13 7 12 9 9 6 7 8 17 13 5 8 5 3 8 8 6 5 5 5 2 5 5 7
29 29 27 33 32 30 11 18 19 9 10 14 22 24 18 23 14 20 18 23 20 19 11 13 11 5 5 6 13 11 17 9 2 1 1 5 6 9 6 6 7 6 5 6 9
29 21 26 32 31 26 12 22 10 9 13 16 14 20 23 25 16 23 19 21 23 22 15 7 6 5 7 2 9 10 7 6 4 5 5 5 6 6 2 5 4 7 9 9 8
18 7 16 30 31 8 8 7 10 16 14 17 10 11 14 17 13 23 19 12 24 23 22 11 7 3 6 10 12 7 13 8 5 7 5 2 5 10 13 3 5 2 9 9 7
6 6 21 33 13 6 12 9 17 18 16 12 12 10 16 23 17 19 19 20 29 25 28 13 3 4 12 2 4 18 9 19 8 8 5 3 6 7 4 4 2 9 8 7 5
5 4 21 31 12 9 16 4 8 13 16 15 7 13 16 23 19 18 22 18 22 25 20 11 6 5 4 2 4 7 14 16 18 3 8 5 9 13 11 3 5 11 8 8 7
3 6 5 7 7 18 11 17 10 11 12 20 15 13 20 20 8 21 15 4 19 23 11 13 5 10 13 13 9 12 19 18 19 14 17 10 9 14 11 8 8 8 9 7 3
3 5 4 5 12 11 9 15 17 10 13 18 13 27 19 11 15 7 5 5 6 19 12 9 14 6 4 4 11 14 18 26 23 24 16 24 20 21 21 13 8 9 7 6 6
4 3 3 1 13 20 22 8 20 14 6 19 15 20 24 13 14 16 18 15 17 14 17 10 6 6 3 4 7 3 11 19 26 27 22 18 16 20 24 9 8 9 8 8 8
3 3 3 7 7 12 16 11 12 17 14 11 21 17 25 22 17 15 7 10 13 16 10 11 8 7 9 10 4 2 22 17 13 19 23 20 26 23 22 20 11 4 7 10 9
Wind_Direction
250 253 258 251 243 245 245 245 245 241 241 245 246 247 253 267 283 275 246 221 204 248 272 323 293 279 292 270 219 286 277 271 320 104 95 137 149 269 15 108 98 81 47 104 143
250 250 251 253 246 241 246 243 241 239 235 236 236 234 240 260 277 267 242 229 239 253 302 287 296 292 262 228 249 239 250 271 39 19 13 147 215 153 183 193 145 108 82 124 146
248 248 249 250 249 247 241 244 241 239 232 229 230 227 223 217 275 247 243 241 238 234 231 286 288 302 261 268 205 222 239 274 35 31 350 351 216 55 205 220 189 179 155 150 161
245 245 247 249 251 251 237 237 241 237 230 222 225 218 206 193 229 39 252 218 227 207 213 216 222 246 224 233 217 269 272 282 70 29 341 350 342 22 274 296 43 56 157 160 176
240 245 244 247 249 251 247 236 239 235 228 218 214 208 184 212 238 79 27 190 194 185 204 208 216 214 229 242 251 254 270 291 81 102 299 332 285 272 298 293 99 64 107 163 186
245 238 244 245 246 246 246 248 232 235 226 216 207 204 211 231 230 238 187 118 171 186 209 211 226 250 286 251 254 259 235 260 232 200 206 275 282 269 221 235 273 142 192 207 190
246 245 240 240 241 241 242 239 230 230 228 213 204 198 228 219 211 220 185 180 182 197 199 217 240 281 145 295 314 5 303 289 260 193 240 224 260 246 250 273 268 239 193 218 220
239 239 240 237 235 237 241 236 234 222 226 215 204 199 239 231 224 199 184 188 188 207 228 204 132 270 265 47 15 293 274 271 231 228 227 207 256 261 234 225 234 236 217 229 221
235 233 234 238 233 233 236 231 229 220 221 212 189 205 230 214 211 198 176 163 153 164 183 157 201 229 156 196 186 193 237 222 265 232 200 186 261 259 241 257 256 230 260 236 240
231 229 231 231 232 228 229 227 223 227 213 191 200 182 242 207 186 180 179 163 148 155 146 196 210 201 212 192 196 189 201 249 262 216 199 234 245 260 277 294 277 268 244 259 265
228 225 224 228 227 226 222 204 151 209 221 207 185 206 102 175 181 190 184 168 171 174 179 202 194 205 192 215 220 258 232 277 234 261 188 232 254 262 274 264 247 247 228 233 245
224 221 221 223 219 223 214 218 215 116 229 191 218 211 220 171 172 184 181 173 190 197 194 175 224 205 216 203 232 234 251 252 288 271 69 305 281 282 281 269 236 243 245 239 245
220 218 219 218 219 216 212 216 217 208 254 229 204 191 209 184 183 189 182 192 186 197 200 205 189 213 211 217 202 223 233 238 253 342 299 293 279 254 237 249 259 244 238 240 246
218 216 213 207 207 208 216 217 223 172 224 193 196 217 203 192 218 186 194 179 182 203 196 226 223 199 210 214 204 223 202 264 295 328 247 90 287 294 317 262 240 248 221 231 238
213 213 209 202 197 198 211 205 205 171 230 169 167 166 197 190 148 193 186 213 203 185 190 201 186 205 207 214 200 215 188 217 232 246 310 252 283 254 205 263 273 226 188 200 222
211 213 211 204 202 209 196 188 177 211 207 177 145 165 177 203 209 150 179 209 224 208 211 212 100 203 213 194 202 124 94 55 61 42 256 187 218 221 223 231 231 204 185 200 226
207 207 204 199 206 196 191 169 208 215 137 160 165 169 177 185 206 176 181 191 178 174 206 225 245 298 176 172 154 144 141 141 203 201 239 170 202 241 282 314 293 294 326 349 95
202 202 207 203 200 196 192 208 220 212 198 150 165 171 184 175 200 196 184 188 206 198 163 184 206 210 192 202 178 180 175 169 183 201 242 189 236 229 136 53 49 90 84 75 42
192 197 200 205 198 193 214 218 207 159 166 167 167 180 185 188 165 187 189 196 188 191 174 188 221 178 189 194 152 186 216 198 70 12 32 209 263 313 266 294 280 207 244 169 97
186 191 207 199 192 193 218 227 190 199 156 178 166 185 185 181 173 187 184 196 199 205 196 180 201 183 189 183 227 186 148 180 190 201 233 242 239 238 146 200 190 168 119 110 114
175 189 207 193 188 202 222 214 201 199 203 172 170 169 192 182 184 183 181 172 196 198 215 215 194 196 132 206 180 192 198 206 162 226 201 219 236 191 222 138 161 153 126 127 149
156 192 179 178 201 211 231 153 212 206 200 219 211 146 183 179 188 185 192 195 196 186 198 202 134 163 201 45 265 213 210 201 201 203 239 279 251 297 297 326 192 132 126 138 175
161 165 169 173 208 200 212 236 185 225 206 205 227 179 168 183 194 191 193 198 187 191 189 157 201 133 115 30 304 213 221 215 224 236 197 185 248 244 289 326 268 141 157 187 191
153 164 180 191 208 238 221 207 193 221 253 218 220 256 181 184 205 197 176 165 170 195 147 154 169 214 198 212 130 203 221 224 213 219 225 222 251 260 249 230 147 170 188 175 179
191 197 185 171 199 221 190 208 189 201 224 214 233 197 210 178 184 151 133 138 175 168 150 154 203 208 264 26 191 196 201 208 210 219 211 225 223 245 255 238 206 198 150 158 221
133 179 126 106 197 202 213 202 190 196 199 226 221 225 197 184 186 175 167 181 181 168 172 174 231 176 204 28 345 231 200 212 216 223 227 237 237 238 256 241 231 219 175 203 217
127 98 91 191 167 194 205 213 217 194 203 255 229 206 204 193 185 183 148 138 152 176 162 159 176 171 223 157 146 272 232 218 227 228 223 225 235 240 249 258 244 264 247 234 203